This demonstration page uses our WeatherBlox Daily Observations layout. Learn more.

Left ArrowRight Arrow

Hourly Observations for December 3, 2021

Temp ( °F °C ) Dew Point ( °F °C ) Humidity (%) Winds ( mph kmh ) Pressure ( in mb ) Visibility ( mi km ) Precip ( " mm )
12:56 am 00:56 Clear 49 9.4 31 -0.6 50 50 WSW 7 11 29.85 1011 10 16 0.00 0.00
1:56 am 01:56 Clear 48 8.9 31 -0.6 52 52 WNW 7 11 29.85 1011 10 16 0.00 0.00
2:56 am 02:56 Clear 48 8.9 30 -1.1 50 50 NW 9 15 29.87 1012 10 16 0.00 0.00
3:56 am 03:56 Clear 47 8.3 34 1.1 61 61 NNW 15 24 29.90 1013 10 16 0.00 0.00
4:56 am 04:56 Clear 47 8.3 35 1.7 63 63 NNW 22 35 29.93 1014 10 16 0.00 0.00
5:56 am 05:56 Clear 45 7.2 34 1.1 66 66 N 18 30 29.98 1015 10 16 0.00 0.00
6:56 am 06:56 Clear 44 6.7 34 1.1 68 68 N 17 28 30.02 1017 10 16 0.00 0.00
7:56 am 07:56 Sunny 43 6.1 33 0.6 68 68 N 18 30 30.05 1018 10 16 0.00 0.00
8:56 am 08:56 Sunny 46 7.8 33 0.6 61 61 N 20 31 30.08 1019 10 16 0.00 0.00
9:56 am 09:56 Sunny 49 9.4 34 1.1 56 56 N 21 33 30.10 1019 10 16 0.00 0.00
10:56 am 10:56 Sunny 52 11.1 34 1.1 50 50 N 17 28 30.12 1020 10 16 0.00 0.00
11:56 am 11:56 Sunny 55 12.8 33 0.6 44 44 N 21 33 30.11 1020 10 16 0.00 0.00
12:56 pm 12:56 Sunny 57 13.9 33 0.6 41 41 N 18 30 30.10 1019 10 16 0.00 0.00
1:56 pm 13:56 Sunny 58 14.4 32 0 38 38 N 22 35 30.09 1019 10 16 0.00 0.00
2:56 pm 14:56 Sunny 57 13.9 31 -0.6 37 37 N 18 30 30.10 1019 10 16 0.00 0.00
3:56 pm 15:56 Sunny 56 13.3 30 -1.1 37 37 NNE 16 26 30.11 1020 10 16 0.00 0.00
4:56 pm 16:56 Sunny 49 9.4 29 -1.7 46 46 NE 12 19 30.14 1021 10 16 0.00 0.00
5:56 pm 17:56 Clear 42 5.6 28 -2.2 58 58 NNE 12 19 30.18 1022 10 16 0.00 0.00
6:56 pm 18:56 Clear 39 3.9 27 -2.8 62 62 N 10 17 30.21 1023 10 16 0.00 0.00
7:56 pm 19:56 Clear 39 3.9 28 -2.2 65 65 NNE 12 19 30.23 1024 10 16 0.00 0.00
8:56 pm 20:56 Mostly Cloudy 38 3.3 29 -1.7 70 70 NNE 6 9 30.24 1024 10 16 0.00 0.00
9:56 pm 21:56 Mostly Clear 37 2.8 29 -1.7 73 73 N 7 11 30.24 1024 10 16 0.00 0.00
10:56 pm 22:56 Clear 36 2.2 29 -1.7 76 76 NNE 6 9 30.25 1025 10 16 0.00 0.00
11:56 pm 23:56 Clear 32 0 28 -2.2 85 85 NNE 7 11 30.27 1025 10 16 0.00 0.00

Powered by AerisWeather